User: anonymous   Login
Location: CNYAC Observatory
(43.2150°N, 74.9500°W)
Time: 01:16:55
(UTC-04:00)
Language:

Cosmos 1300 Rocket - Orbit

View from above orbital plane
View from above orbital plane
View from above satellite
View from above satellite

Ground track
Ground track

The orbit data is extracted from the following two-line orbital elements,

1 12786U 81082B   16145.11564524  .00000118  00000-0  10992-4 0  9993
2 12786  82.4873 334.3823 0019161  98.5608 261.7780 14.84617630877089
Epoch (UTC): 24 May 2016 02:46:31
Eccentricity: 0.0019161
inclination: 82.4873°
perigee height: 601 km
apogee height: 628 km
right ascension of ascending node: 334.3823°
argument of perigee: 98.5608°
revolutions per day: 14.84617630
mean anomaly at epoch: 261.7780°
orbit number at epoch: 87708

The dashed part of the orbit path shows where the satellite is in the earth's shadow,  

DLR